Theta_e
334 327 329 326 314 311 310 312 319 317 318 322 322 320 318 320 315 312 335 340 339 340 348 350 354 354 353 352 350 349 348 345 343 341 339 338 336 334 334 334 335 336 336 337 338 338 338 337 337
323 323 326 322 309 307 309 317 315 320 323 324 323 322 320 317 324 324 331 341 340 341 350 346 354 354 354 352 351 350 349 346 344 342 341 340 339 338 337 337 337 339 338 338 339 340 342 341 340
330 325 321 315 311 308 310 317 320 322 323 320 319 322 320 319 325 327 340 342 340 340 351 348 355 354 354 353 352 351 350 348 345 343 342 341 341 340 340 339 339 340 341 341 341 341 343 344 342
321 323 322 314 311 315 316 321 321 320 323 322 320 317 323 328 325 330 337 341 340 339 347 353 354 354 354 354 353 352 351 350 348 345 344 343 343 344 343 340 340 341 343 343 343 342 343 343 341
324 322 312 310 309 314 319 321 324 322 321 320 320 317 319 328 331 333 336 339 339 339 342 352 354 355 354 354 353 352 351 350 350 348 346 344 346 346 344 343 343 344 345 345 344 344 344 342 342
317 320 311 307 310 314 317 319 319 319 321 320 319 319 321 329 330 331 335 337 339 339 341 345 356 355 354 354 353 353 352 352 351 350 349 348 348 348 347 346 345 345 344 343 343 343 343 343 341
315 316 310 311 310 311 314 320 318 318 318 319 322 316 323 327 332 332 333 336 338 339 340 342 354 355 354 354 353 353 352 352 351 350 350 350 348 349 347 345 344 343 341 339 339 340 341 342 341
318 316 311 312 310 310 317 318 321 318 318 324 323 316 319 327 331 331 332 333 335 337 338 341 348 355 353 350 354 353 353 352 352 351 350 350 348 348 346 343 339 337 336 336 336 337 338 340 340
320 310 308 310 311 312 318 317 321 323 320 321 323 323 326 328 330 329 329 330 332 334 338 341 342 348 351 346 348 354 353 352 352 350 349 349 343 341 344 342 337 335 334 334 334 335 336 337 338
313 310 311 316 317 316 318 318 319 319 319 319 320 325 327 328 328 327 326 325 328 331 336 339 349 345 349 344 347 351 347 347 347 345 344 347 344 342 339 341 336 335 335 334 334 335 336 337 335
315 310 316 318 319 319 318 318 321 318 316 319 318 322 325 326 327 326 325 326 328 331 335 339 352 355 351 346 344 349 347 346 346 346 347 348 342 342 341 340 339 339 337 337 336 336 336 335 335
312 316 317 318 319 318 317 318 318 319 319 323 322 324 325 324 325 325 325 327 328 332 334 340 344 354 358 346 341 344 346 345 343 345 348 344 339 343 342 338 339 341 336 336 335 333 335 336 335
312 314 317 319 319 319 319 317 317 318 322 323 323 324 324 324 324 325 326 327 330 333 335 337 347 355 357 359 345 347 346 343 345 341 343 342 339 343 340 342 337 338 336 337 337 337 336 335 335
314 314 314 315 316 317 316 316 317 319 322 321 321 322 323 323 323 325 326 327 330 335 336 338 346 356 356 354 358 353 353 346 342 340 339 342 342 342 339 339 336 337 336 336 336 336 338 335 335
315 311 313 314 315 314 316 312 313 318 320 319 320 321 322 322 323 323 325 328 330 334 338 347 352 356 358 358 356 351 346 343 340 339 342 342 344 343 342 338 338 343 343 341 338 337 338 333 332
310 311 305 312 314 314 314 306 314 319 318 318 319 319 320 322 323 325 326 330 337 338 342 346 341 353 358 357 354 349 344 341 337 337 339 343 344 343 341 338 338 344 344 341 338 336 335 331 330
308 303 305 308 314 313 312 308 315 318 317 317 318 319 319 320 323 328 327 329 337 341 347 343 350 346 356 357 352 350 353 340 336 337 338 340 342 341 340 338 340 342 342 340 337 335 335 330 329
301 302 304 304 310 312 310 310 314 316 315 316 317 318 319 319 321 326 328 331 334 339 345 347 348 354 356 352 351 343 339 338 337 337 338 340 341 339 341 338 340 341 339 337 337 334 335 332 336
305 304 304 307 312 309 308 309 312 315 315 315 316 318 319 319 323 326 328 331 334 337 341 344 346 354 351 345 341 337 333 336 335 337 340 341 341 342 340 338 339 338 336 336 337 333 332 332 334
303 302 303 307 311 309 309 308 312 314 315 315 315 316 318 319 321 323 327 334 334 336 339 340 343 350 350 345 343 338 338 334 336 337 340 341 339 340 338 338 338 338 337 335 333 334 330 331 332
303 301 302 303 308 309 308 306 308 312 314 315 315 317 318 319 320 323 324 333 334 335 338 339 342 347 348 347 342 340 338 338 335 333 335 339 338 340 338 337 337 336 339 335 335 334 331 327 333
298 306 305 304 303 298 307 297 305 309 310 312 314 316 317 319 321 323 325 332 334 335 338 340 343 343 341 346 343 346 334 330 331 336 336 337 336 336 336 336 336 335 341 334 334 333 331 332 327
301 306 305 305 302 301 301 298 302 308 306 310 313 315 317 319 320 322 327 331 333 336 337 340 341 340 341 342 345 335 336 331 334 333 336 338 338 335 335 335 335 336 334 336 334 333 333 335 332
306 304 305 305 302 295 300 299 300 304 307 310 314 316 318 319 321 325 331 332 333 335 337 338 338 338 339 338 339 340 337 334 332 333 335 338 338 337 336 333 334 336 335 334 334 335 334 335 335
304 301 294 292 293 293 302 299 301 308 310 312 313 315 317 322 325 327 328 329 331 333 335 336 336 336 337 337 337 337 337 337 336 333 335 334 332 336 336 335 336 335 336 336 336 335 334 335 335
301 301 295 289 292 294 302 296 302 311 313 314 315 316 322 325 326 327 328 329 330 332 333 334 334 334 335 335 336 337 338 334 333 335 333 335 334 335 336 335 336 336 336 336 337 332 333 335 336
300 298 304 299 301 297 300 304 308 312 312 313 315 316 321 324 326 327 329 330 330 332 332 333 334 334 334 334 336 336 337 335 336 336 336 333 335 333 334 334 335 335 335 335 336 337 335 333 334
302 305 297 300 292 291 297 300 300 307 309 312 314 315 319 324 326 327 328 329 331 332 332 335 334 333 333 334 335 335 335 336 336 335 334 335 335 333 333 334 335 335 335 335 336 336 335 334 336
299 299 301 302 300 294 293 296 308 309 312 312 314 317 322 324 325 326 328 329 331 332 333 334 333 331 331 334 334 336 335 335 335 334 333 335 334 335 331 331 333 333 334 335 336 334 332 332 333
302 301 302 297 297 299 299 299 312 312 313 316 317 321 324 325 325 326 327 329 329 330 332 332 331 330 331 332 333 334 334 335 335 334 332 334 333 333 330 331 330 331 333 335 332 330 330 331 330
Wind_Speed
9 12 10 7 9 8 14 10 10 6 9 1 3 7 12 12 9 6 7 7 9 16 20 22 20 20 18 17 16 16 15 14 13 12 11 10 9 7 5 5 4 4 4 3 4 4 5 6 6
12 11 6 9 9 13 14 12 9 8 9 6 8 8 12 7 9 5 6 8 9 16 18 20 21 19 18 17 16 16 15 14 13 12 11 10 8 7 6 5 5 6 6 5 6 6 6 7 7
14 12 9 7 14 15 6 2 11 8 3 5 6 1 8 5 7 6 10 7 10 15 17 18 23 20 19 18 17 16 15 14 13 12 11 10 9 9 9 8 8 8 8 8 8 9 9 8 8
9 8 9 11 18 15 12 4 3 4 7 5 7 11 0 10 3 8 5 8 10 13 16 17 23 20 20 19 18 17 16 14 14 13 11 10 10 9 9 9 9 10 11 11 11 11 11 9 7
11 10 13 15 18 19 6 10 13 12 11 6 3 12 3 13 7 4 4 5 9 12 13 18 23 21 20 19 18 17 17 15 13 12 12 11 10 11 11 11 11 12 13 14 14 13 12 10 10
10 12 14 15 20 18 8 7 12 14 16 10 5 13 8 8 7 5 1 5 9 12 14 16 21 22 19 18 18 17 15 15 13 12 11 11 11 12 12 13 13 11 11 11 12 12 12 11 10
17 14 16 19 19 16 3 5 11 13 12 14 4 4 9 8 9 6 6 6 8 12 16 13 16 17 17 16 16 16 15 14 14 12 11 10 11 11 13 8 8 9 9 10 12 12 12 11 11
15 15 24 20 17 16 8 4 14 10 13 7 2 8 12 10 10 10 14 10 10 11 13 15 14 16 16 16 15 15 15 14 13 11 10 9 11 13 11 9 13 11 9 8 10 11 13 13 12
18 16 18 22 22 16 15 15 10 2 11 16 11 14 13 16 14 12 13 14 14 8 10 13 16 15 16 17 16 15 16 14 11 11 11 9 10 11 13 16 9 7 8 9 9 10 11 13 15
20 18 25 23 20 17 19 20 17 17 11 16 14 19 18 14 13 16 17 17 15 13 12 14 12 15 16 13 15 15 14 11 11 11 10 10 9 9 6 5 6 9 11 11 12 13 13 11 10
25 24 24 23 23 24 24 25 21 21 21 19 16 18 20 20 18 19 20 18 18 15 7 13 14 13 14 13 11 9 8 9 9 12 10 8 6 7 6 6 6 8 15 8 13 12 10 12 6
30 30 28 28 27 27 31 28 24 24 22 21 17 18 20 21 18 17 19 18 19 14 11 14 15 14 12 10 11 11 10 10 8 10 10 7 6 8 8 6 6 4 6 5 6 6 6 3 7
32 30 30 29 30 32 28 28 29 26 25 24 21 18 21 20 19 17 18 17 17 15 13 11 16 15 13 13 11 10 10 9 9 8 9 8 8 7 7 3 4 8 5 4 5 5 1 4 8
30 31 31 31 32 30 31 32 27 26 24 26 23 23 23 21 17 17 17 16 17 15 12 11 17 16 16 14 12 10 7 9 8 7 8 11 8 6 7 4 6 6 7 7 6 4 3 6 6
31 35 33 32 29 29 22 33 32 28 25 27 26 24 24 19 17 17 17 15 15 13 11 10 14 17 17 16 13 11 10 9 9 8 8 8 8 8 8 6 7 5 5 8 8 8 5 7 7
35 30 31 31 32 28 26 33 28 25 26 25 20 21 16 18 21 17 17 14 12 11 10 11 13 17 16 15 13 10 10 10 9 8 7 10 9 9 7 7 7 7 5 5 5 6 8 7 6
26 28 36 31 29 27 30 39 28 24 25 25 29 16 18 20 23 19 18 15 12 12 11 12 13 16 16 14 12 11 9 9 8 7 7 8 9 9 6 8 7 8 6 6 6 6 8 7 7
30 34 30 33 27 28 34 35 30 20 23 25 27 24 21 22 25 22 18 16 12 9 9 10 11 12 15 12 10 10 9 8 7 7 7 7 7 5 6 7 8 7 6 7 6 9 7 8 5
29 27 33 31 26 28 31 31 23 21 25 27 26 28 23 22 24 23 19 4 6 7 7 11 13 13 13 12 12 11 10 8 7 6 7 6 7 4 7 5 7 5 7 9 8 7 8 7 7
32 31 33 28 28 23 25 28 25 23 24 25 27 27 25 23 26 23 15 7 6 8 10 12 14 14 13 10 10 8 7 8 8 7 6 6 6 7 2 6 7 9 7 8 8 8 6 6 5
32 33 27 30 24 21 22 27 28 25 27 28 28 29 28 27 24 19 17 8 7 10 12 13 15 16 13 12 7 6 5 2 4 5 7 7 6 3 6 7 7 7 6 6 6 7 9 7 6
34 28 27 25 22 17 21 24 25 18 24 23 23 22 21 21 19 19 11 10 10 10 12 14 15 16 13 11 10 9 8 7 5 2 1 2 2 6 4 5 7 7 4 6 6 7 8 6 7
34 24 25 25 21 23 24 20 16 21 22 23 23 23 21 20 20 19 12 12 11 12 13 15 16 15 14 11 9 8 6 6 3 3 2 4 2 3 6 6 4 6 5 5 6 5 7 6 6
28 27 25 20 17 22 22 21 20 21 20 19 19 15 19 19 16 6 12 14 13 14 15 16 17 14 14 11 10 8 6 1 1 4 1 1 2 3 6 7 4 3 5 4 6 6 6 5 5
27 23 16 17 19 21 18 21 22 19 18 17 16 11 5 10 10 12 15 15 16 17 17 17 17 15 13 12 10 7 6 4 4 3 4 5 3 3 6 4 1 3 3 6 5 5 5 5 4
31 28 17 28 12 15 22 18 16 17 10 8 11 12 10 8 11 14 15 16 18 18 18 17 16 15 13 12 10 7 6 7 4 3 5 5 3 5 6 4 3 3 5 5 5 5 4 2 2
39 30 30 24 20 15 13 17 15 17 14 9 10 14 14 12 14 16 17 17 18 18 17 17 16 14 13 11 9 7 6 1 6 4 2 5 4 4 4 3 1 4 4 3 3 2 3 3 2
33 27 24 23 24 14 14 10 8 2 7 13 10 13 13 14 16 17 16 18 16 16 16 15 14 14 12 11 9 8 6 4 5 3 1 4 5 4 5 3 1 2 3 2 2 1 1 1 2
26 25 30 20 18 15 11 8 2 5 2 15 14 13 15 17 17 17 17 17 17 16 15 14 13 13 11 10 9 6 6 5 5 4 4 5 4 4 4 4 4 3 4 2 2 2 2 4 5
29 27 31 16 22 17 11 4 4 9 7 5 4 12 15 16 18 17 18 18 17 16 15 14 12 12 11 10 9 7 7 4 4 5 5 10 5 5 4 3 1 6 3 6 4 1 2 5 5
Wind_Direction
181 204 221 218 236 235 247 224 261 200 213 109 308 288 335 346 329 10 97 106 128 144 153 168 171 170 170 168 167 167 170 175 175 174 176 176 180 188 192 194 204 213 227 233 239 246 266 274 274
188 201 226 273 252 223 228 218 178 233 24 326 282 262 247 291 33 346 83 127 150 143 157 176 175 173 172 173 174 171 175 179 183 184 186 189 196 202 215 229 239 243 251 260 267 260 247 246 263
258 207 254 228 234 265 319 135 258 83 252 282 278 173 319 1 77 5 62 147 161 156 165 181 170 175 176 180 178 177 178 182 188 194 198 204 212 220 227 235 249 254 259 261 265 269 264 251 245
197 209 252 259 254 233 301 248 105 250 185 215 310 289 50 71 17 24 58 160 163 170 174 159 168 179 179 185 182 181 181 187 194 199 208 217 228 234 235 243 249 259 260 261 264 265 266 259 267
223 255 247 238 247 271 266 286 316 302 276 235 261 290 306 96 97 69 103 191 200 178 187 156 168 179 185 187 185 186 184 188 199 205 212 223 235 243 248 254 256 256 262 267 269 270 266 267 271
223 239 250 249 242 245 227 281 279 275 274 284 205 251 279 122 73 26 60 193 211 195 184 167 171 179 189 190 188 190 186 187 197 209 217 228 238 248 255 259 260 265 271 274 281 281 282 268 261
237 240 250 266 275 279 266 320 280 262 273 278 255 293 304 134 82 328 304 258 239 226 175 197 173 185 189 192 194 191 191 189 195 205 216 229 243 258 267 270 261 262 268 276 278 278 277 271 261
245 253 268 265 260 268 271 313 265 283 273 54 23 277 287 339 358 321 288 275 264 218 204 195 181 181 197 197 200 197 192 194 196 201 212 230 252 257 244 245 237 246 259 268 273 275 274 267 262
236 255 251 253 256 263 268 237 259 141 291 302 289 292 294 295 290 281 280 284 269 248 219 197 193 184 196 201 190 198 201 196 197 210 215 217 248 267 220 222 156 176 238 254 257 263 263 262 260
228 238 242 257 265 271 287 289 295 269 246 275 269 279 263 296 297 291 292 288 271 258 214 207 198 192 192 210 194 197 203 205 207 218 224 212 236 260 303 333 202 206 225 237 240 242 243 246 250
232 240 252 257 265 280 288 274 279 277 277 277 291 294 300 297 294 288 277 280 280 274 231 214 175 190 202 202 191 183 202 201 202 217 219 227 254 252 243 244 210 214 206 234 204 220 229 229 241
243 237 245 259 268 283 280 288 272 269 275 284 287 287 289 290 289 290 293 294 288 253 254 193 193 183 199 207 201 194 194 195 203 199 211 227 234 225 234 263 282 233 245 261 268 261 258 295 275
236 242 251 256 264 269 272 275 279 271 279 283 287 287 277 275 279 285 292 289 273 267 264 234 187 176 190 219 199 202 202 190 201 208 195 223 240 239 255 244 264 298 277 260 254 285 211 231 255
243 249 253 258 264 267 268 270 264 259 265 277 275 273 270 276 285 285 290 280 271 264 259 250 184 178 185 201 224 183 198 184 201 212 216 200 238 240 256 243 238 239 247 263 273 291 288 254 263
255 256 259 255 256 262 269 270 261 268 268 271 270 268 258 266 274 290 293 279 270 263 247 236 190 179 184 195 209 190 187 207 189 211 210 224 222 230 252 254 240 266 273 262 263 259 238 259 244
250 255 257 249 250 247 246 260 265 272 270 273 272 269 269 273 285 288 291 281 273 265 254 211 204 182 182 190 196 196 194 192 201 201 209 201 228 238 261 253 260 249 250 241 249 250 250 258 255
238 243 241 249 245 250 244 255 257 263 268 261 262 269 269 271 277 285 279 273 257 251 234 228 202 191 181 193 196 198 183 192 200 201 216 211 224 236 210 255 261 257 249 236 233 233 246 258 243
227 236 244 255 255 248 246 255 258 274 268 267 277 273 260 275 278 281 282 270 251 254 246 215 185 192 172 184 193 195 173 199 196 204 222 226 236 246 234 248 253 251 243 241 235 240 236 245 242
242 246 247 249 247 238 257 269 264 250 255 263 274 279 272 269 279 280 273 261 267 252 210 185 184 182 168 179 186 189 184 195 197 213 218 237 248 257 248 248 244 241 240 239 243 235 244 242 267
243 252 252 263 265 260 260 268 271 270 282 285 280 278 277 278 275 268 264 154 207 195 182 185 183 166 179 174 193 183 192 185 202 200 198 223 260 243 216 235 245 253 243 240 229 230 233 248 231
231 235 245 255 262 263 273 273 272 268 265 262 262 263 260 258 261 268 257 155 174 184 177 174 173 165 180 175 168 162 163 160 185 209 216 192 223 241 223 233 237 254 243 254 234 238 233 234 216
236 230 242 255 266 264 251 266 258 263 265 268 273 271 268 259 257 244 225 157 176 170 167 160 157 166 174 159 154 166 179 200 200 210 41 181 159 250 254 248 233 229 236 240 243 223 237 226 226
241 234 238 238 246 260 253 260 273 265 265 264 259 255 259 251 243 248 162 158 166 155 156 153 155 169 147 179 164 171 221 175 211 214 119 225 247 272 259 222 224 217 234 244 232 230 213 221 217
238 232 241 244 250 246 242 253 266 268 276 284 284 260 249 230 229 153 134 148 149 155 152 151 157 154 160 160 155 210 153 275 227 200 179 134 211 231 251 238 219 195 216 223 222 203 198 209 231
224 216 221 224 225 245 242 246 260 274 275 280 291 256 226 105 127 148 153 155 155 153 151 153 155 151 159 156 159 157 162 169 193 249 189 188 185 210 224 213 198 239 234 224 206 192 199 199 211
222 206 213 213 214 231 223 243 256 254 253 271 263 235 130 157 152 159 157 150 151 150 153 151 152 155 158 159 164 153 148 187 213 168 337 85 157 201 180 181 172 220 221 216 204 199 228 194 223
211 213 216 248 218 245 236 222 238 248 248 246 233 186 150 161 160 154 150 154 150 150 153 150 154 155 161 159 162 155 169 65 67 70 234 112 170 175 159 132 172 235 144 212 225 251 196 194 237
224 208 204 224 239 224 242 241 238 186 199 174 197 179 154 154 155 150 152 149 146 150 147 154 154 157 160 161 156 164 149 151 136 164 162 103 168 138 136 136 150 154 68 57 112 127 210 183 258
215 200 213 220 229 229 235 248 182 198 227 181 196 163 151 161 152 153 148 144 148 149 148 152 155 159 159 161 169 129 147 173 163 132 161 147 156 148 201 167 182 142 97 104 88 83 196 202 224
215 214 204 217 206 237 212 146 80 174 242 357 328 124 152 157 155 154 148 150 153 151 154 159 158 157 163 167 165 145 160 197 124 168 155 139 207 174 201 182 66 83 96 67 64 96 238 193 195